www.pogodaiklimat.ru

Погода и климат >> Архив погоды >> Мексика >> Туспан


ПОГОДА в Туспане

  • Прогноз погоды в Туспане
  • Монитор погоды в Туспане

АРХИВ ПОГОДЫ в Туспане

Время (UTC), дата Ветер
(напр.,м/с)
 
Видим.   Явления Облачность Т
(С)
Тd
(С)
f
(%)
Тe
(С)
Тes
(С)
Комфортность P
(гПа)
Po
(гПа)
Тmin
(С)
Tmax
(С)
R
(мм)
R24
(мм)
S
(см)
03 10.09 ЮВ 1 1000 м 4/3 180 м
[Cu med, cong As trans]
+29.0 +27.6 92 +47 +47 опасность
перегрева
1015.7 1014.6
06 10.09 штиль 0 1000 м 8/4 120 м
[Cu med, cong As trans]
+28.0 +27.2 95 +44 +44 опасность
перегрева
1016.7 1015.5 +23.6 +35.8
09 10.09 штиль 0 1000 м в посл. час гроза 10/5 60 м
[Cb cap As op]
+27.0 +26.7 98 +42 +42 опасность
перегрева
1015.8 1014.7 0.1
12 10.09 штиль 0 1000 м гроза без осадков 8/4 60 м
[Cb cap Ac trans]
+25.0 +24.7 98 +35 +35 очень
душно
1015.8 1014.6 +24.2 +35.8 0.4
15 10.09 ЮВ 1 8000 м 6/4 540 м
[Cu med, cong As op]
+26.6 +24.9 90 +38 +42 очень
душно
1017.4 1016.2
18 10.09 ЮВ 1 8000 м 5/4 700 м
[Cu med, cong Cs]
+33.6 +29.1 77 +57 +71 опасность
перегрева
1016.6 1015.5 +24.2 +35.4
21 10.09 ЮВ 1 8000 м 8/4 400 м
[Cu med, cong Ac trans]
+33.4 +30.3 84 +61 +67 опасность
перегрева
1014.8 1013.7
00 11.09 ЮВ 1 8000 м 10/5 210 м
[Sc diur, vesp As op]
+30.8 +29.2 91 +54 +54 опасность
перегрева
1014.2 1013.1 +24.2 +35.8
03 11.09 ЮВ 3 1000 м слаб. морось 10/5 150 м
[Sc As op]
+29.0 +27.9 94 +48 +48 опасность
перегрева
1014.8 1013.6 0.0
06 11.09 ЮВ 3 1000 м в посл. час гроза 10/5 <50 м
[Cb cap As op]
+26.0 +25.4 97 +38 +38 очень
душно
1018.0 1016.9 24
09 11.09 ЮВ 2 1000 м 10/5 <50 м
[Sc As op]
+24.6 +24.0 96 +34 +34 очень
душно
1018.9 1017.7
12 11.09 ЮВ 1 1000 м 5/3 90 м
[St As op]
+23.8 +23.2 96 +32 +32 очень
душно
1018.2 1017.1 +23.4 +35.8
15 11.09 СВ 2 7000 м слаб. морось 10/5 150 м
[Frnb As op]
+25.0 +23.9 94 +34 +35 очень
душно
1018.6 1017.5 3
18 11.09 СВ 1 7000 м в посл. час гроза {дождь} 10/5 90 м
[Cb cap As op]
+24.0 +23.4 96 +32 +34 очень
душно
1018.3 1017.2 +23.4 +27.0 53
21 11.09 СВ 1 8000 м слаб. морось 10/6 150 м
[Frnb As op]
+25.0 +23.9 94 +34 +35 очень
душно
1016.3 1015.1 2
00 12.09 СВ 1 8000 м {морось} 8/4 180 м
[Sc diur, vesp Ac trans]
+26.0 +24.6 92 +37 +37 очень
душно
1015.4 1014.2 +23.4 +27.6 0.3
03 12.09 СВ 1 1000 м 10/4 150 м
[Sc Ac As]
+25.2 +24.1 94 +35 +35 очень
душно
1016.9 1015.7
12 12.09 СВ 1 1000 м 10/5 90 м
[Sc Ac und]
+23.6 +23.0 96 +31 +31 очень
душно
1017.1 1016.0 +23.4 +27.6
15 12.09 С 1 8000 м слаб. дождь 10/4 60 м
[Frnb As op]
+23.4 +23.1 98 +33 +34 очень
душно
1017.4 1016.2 16
18 12.09 С 1 8000 м {морось} 8/4 360 м
[Cu med, cong Ac trans]
+28.0 +25.2 85 +41 +49 опасность
перегрева
1017.5 1016.4 +22.4 +29.2 16
21 12.09 В 2 8000 м 8/4 570 м
[Cu med, cong Ac trans]
+31.4 +27.0 78 +49 +54 опасность
перегрева
1015.5 1014.4
00 13.09 ЮВ 2 8000 м 8/4 210 м
[Cu med, cong Ac trans]
+29.4 +27.8 91 +48 +48 опасность
перегрева
1015.3 1014.2 +22.4 +32.8
03 13.09 ЮВ 3 1000 м слаб. морось {дождь} 9/5 120 м
[Cu med, cong Ac As]
+26.0 +25.1 95 +37 +37 очень
душно
1016.3 1015.2 4
06 13.09 ЮВ 2 1000 м слаб. морось {дождь} 6/4 <50 м
[Cu med, cong Ac As]
+24.6 +24.0 96 +34 +34 очень
душно
1015.4 1014.3 4
09 13.09 ЮВ 1 1000 м 6/4 <50 м
[Cu med, cong Ac As]
+24.0 +23.4 96 +32 +32 очень
душно
1014.6 1013.5
12 13.09 ЮВ 1 1000 м 5/3 60 м
[Frnb Ac As]
+23.2 +22.9 98 +32 +32 очень
душно
1016.2 1015.1 +23.0 +32.8
15 13.09 ЮЗ 1 8000 м слаб. дождь 10/6 90 м
[Frnb As op]
+24.4 +23.8 96 +33 +34 очень
душно
1019.2 1018.0 1
18 13.09 ЮЗ 1 8000 м {дождь} 9/5 240 м
[Sc diur, vesp As op]
+27.6 +25.7 89 +41 +45 опасность
перегрева
1018.4 1017.3 +23.0 +28.8 8
21 13.09 СЗ 1 8000 м 8/4 330 м
[Cu med, cong Ac trans]
+30.0 +27.5 86 +48 +53 опасность
перегрева
1015.7 1014.5
00 14.09 З 1 8000 м 9/4 150 м
[Cu med, cong Ac trans Ci]
+28.2 +27.1 94 +45 +45 опасность
перегрева
1016.0 1014.9 +23.0 +31.4
03 14.09 СЗ 2 1000 м {дождь} 9/4 60 м
[Sc As op]
+26.2 +25.6 97 +39 +39 очень
душно
1017.7 1016.6 5
06 14.09 СЗ 2 1000 м слаб. морось {дождь} 8/4 60 м
[Sc As op]
+24.0 +23.4 96 +32 +32 очень
душно
1018.3 1017.2 +22.0 +31.4 2
09 14.09 СЗ 1 1000 м {дождь} 8/4 30 м
[Sc As op]
+23.6 +23.3 98 +32 +32 очень
душно
1017.3 1016.1 8
12 14.09 СЗ 2 1000 м 6/3 30 м
[Sc As op]
+23.2 +22.9 98 +32 +32 очень
душно
1017.2 1016.1 +21.6 +31.4 8
15 14.09 СЗ 2 8000 м 5/3 240 м
[Cu med, cong Ac trans]
+25.8 +24.1 90 +36 +40 очень
душно
1019.0 1017.8
18 14.09 СЗ 2 8000 м 5/4 500 м
[Cu med, cong Ac trans]
+30.0 +26.1 80 +45 +56 опасность
перегрева
1018.5 1017.3 +21.6 +31.0
21 14.09 СЗ 2 8000 м 5/4 570 м
[Cb cap Ac trans]
+31.4 +27.0 78 +49 +56 опасность
перегрева
1015.8 1014.7
00 15.09 СЗ 2 8000 м 3/3 210 м
[Cb cap]
+30.4 +28.8 91 +52 +53 опасность
перегрева
1016.0 1014.8 +21.6 +33.6
03 15.09 ЮВ 1 1000 м 1/1 90 м
[Cu med, cong]
+28.0 +27.2 95 +44 +44 опасность
перегрева
1017.6 1016.5
06 15.09 штиль 0 1000 м 1/1 60 м
[Cu med, cong]
+26.6 +26.0 97 +40 +40 очень
душно
1018.0 1016.9 +21.6 +33.6
09 15.09 штиль 0 1000 м ясно +25.0 +24.7 98 +35 +35 очень
душно
1017.2 1016.1
12 15.09 штиль 0 1000 м 1/1 30 м
[Cu med, cong]
+24.2 +23.9 98 +33 +33 очень
душно
1015.8 1014.7 +22.6 +33.6
15 15.09 СЗ 2 8000 м 3/3 270 м
[Sc]
+26.8 +24.8 89 +38 +43 очень
душно
1016.8 1015.6
18 15.09 СВ 2 8000 м 4/4 630 м
[Cu med, cong]
+31.6 +26.7 75 +49 +60 опасность
перегрева
1016.3 1015.1 +22.6 +32.8
21 15.09 С 2 8000 м 4/4 630 м
[Cu med, cong]
+32.4 +27.5 75 +51 +59 опасность
перегрева
1014.2 1013.1
00 16.09 ЮВ 2 8000 м 3/3 210 м
[Cu med, cong]
+30.8 +29.2 91 +54 +54 опасность
перегрева
1014.2 1013.1 +22.6 +34.2
03 16.09 ЮВ 1 1000 м ясно +28.2 +27.6 97 +46 +46 опасность
перегрева
1015.5 1014.4
06 16.09 штиль 0 1000 м 1/1 30 м
[Cu med, cong]
+26.4 +26.1 98 +39 +39 очень
душно
1016.6 1015.4 +22.6 +34.2
09 16.09 штиль 0 1000 м ясно +25.4 +25.1 98 +36 +36 очень
душно
1015.2 1014.1
12 16.09 СЗ 1 1000 м дымка {туман} 3/3 30 м
[Cu med, cong]
+24.6 +24.3 98 +34 +34 очень
душно
1015.8 1014.6 +23.4 +34.2
15 16.09 ЮЗ 1 8000 м ясно +27.2 +25.0 88 +39 +48 очень
душно
1017.6 1016.5
18 16.09 ЮЗ 1 8000 м 3/3 540 м
[Cu hum]
+32.2 +27.9 78 +52 +68 опасность
перегрева
1016.0 1014.8 +23.4 +33.6
21 16.09 ЮВ 1 8000 м 4/1 480 м
[Cu hum Ac trans]
+33.0 +29.3 81 +58 +68 опасность
перегрева
1013.0 1011.9
00 17.09 В 1 8000 м 5/5 270 м
[Cu hum]
+31.2 +29.1 89 +55 +55 опасность
перегрева
1013.6 1012.5 +23.4 +35.0

 

Местоположение метеостанции Туспан (Мексика): широта 20.95 долгота -97.40 высота над уровнем моря 28 м.

В архиве по умолчанию представлена погода в Туспане за последнюю неделю. Архивные данные за месяц целиком и за предыдущие месяцы, начиная с января 2011 года, Вы можете получить, выбрав интересующий диапазон дат из раскрывающегося списка и нажав кнопку "Ввод!".


*Определитесь, кто Вы:
робот инопланетянин человек

Внимание! Время в таблицах - всемирное. Для получения местного времени необходимо прибавить поправку, которая равна -6 ч.

Смотрите также архив погоды в соседних городах и на ближайших метеорологических станциях:

Погода в Тулансинго (Мексика) (140 км)
Погода в Тампико (Мексика) (147 км)
Погода в Маталапе (Мексика) (152 км)
Погода в Халапе (Мексика) (164 км)
Погода в Пачуке (Мексика) (168 км)
Погода в Тамуине (Мексика) (183 км)
Погода в Тлашкале (Мексика) (202 км)
Погода в Тлашкала аэропорту (Мексика) (202 км)
Погода в Пуэбле (Мексика) (226 км)
Погода в Кордове (Мексика) (233 км)

Пояснения к столбцам:

Ветер - указаны скорость ветра в м/с - средняя за 10 мин, порывы в срок и между сроками (в фигурных скобках) и направление, откуда дует ветер: С - северный, СВ - северо-восточный, В - восточный, ЮВ - юго-восточный, Ю - южный, ЮЗ - юго-западный, З - западный, СЗ - северо-западный.
Видимость - горизонтальная дальность видимости в метрах или километрах. При видимости от 1 до 10 км при отсутствии осадков обычно наблюдается дымка, при ухудшении видимости до 1 км и менее - туман. В сухую погоду видимость может ухудшаться дымом, пылью или мглою.
Явления - указаны атмосферные явления, наблюдавшиеся в срок или в последний час перед сроком; фигурными скобками обозначены явления, наблюдавшиеся между сроками (за 1-3 часа до срока); квадратными скобками обозначены град или гололедные отложения с указанием их диаметра в мм.
Облачность - указаны через наклонную черту общая и нижняя облачность в баллах и высота нижней границы облаков в метрах; квадратными скобками обозначены формы облаков: Ci - перистые, Cs - перисто-слоистые, Cc - перисто-кучевые, Ac - высококучевые, As - высокослоистые, Sc - слоисто-кучевые, Ns - слоисто-дождевые, Cu - кучевые, Cb - кучево-дождевые. Подробнее классификацию облаков см. в Атласе облаков (PDF).
T - Температура воздуха - температура, измеренная на высоте 2 м над землей.
Td - Температура точки росы - температура, при понижении до которой содержащийся в воздухе водяной пар достигнет насыщения.
f - Относительная влажность воздуха - влажноcть воздуха, измеренная на высоте 2 м над землей.
Te - Эффективная температура - температура, которую ощущает одетый по сезону человек в тени. Характеристика душности погоды. При расчете учитывается влияние влажности воздуха и скорости ветра на теплоощущения человека.
Tes - Эффективная температура на солнце - температура, которую ощущает человек, с поправкой на солнечный нагрев. Характеристика знойности погоды. Зависит от высоты солнца над горизонтом, облачности и скорости ветра. Ночью, в пасмурную погоду, а также при ветре 12 м/с и более поправка равна нулю.
P - Атмосферное давление - приведенное к уровню моря атмосферное давление.
Po - Атмосферное давление - измеренное на уровне метеостанции атмосферное давление.
Tmin - Минимальная температура - минимум температуры воздуха на высоте 2 м над землей.
Tmax - Максимальная температура - максимум температуры воздуха на высоте 2 м над землей.
R - Количество осадков - Количество выпавших осадков за период времени, мм. При наведении курсора мыши на число - период времени, за который выпало указанное количество осадков.
R24 - Количество осадков - Количество выпавших осадков за 24 часа, мм.
S - Снежный покров - Высота снежного покрова, см. При наведении курсора мыши на число - состояние снежного покрова и степень покрытия местности в баллах.